Previsão horária em Plosnia

Hoje, 2 Março, Terça-feira

Tempo Temperatura Precipitação Vento Pressão Humidade
00:00 -1°C° 0 mm 2 m/s 750 mmHg 93%
01:00 -1°C° 0 mm 2 m/s 751 mmHg 93%
02:00 -1°C° 0 mm 2 m/s 750 mmHg 93%
03:00 -1°C° 0 mm 3 m/s 750 mmHg 93%
04:00 -1°C° 0 mm 3 m/s 749 mmHg 93%
05:00 -1°C° 0 mm 3 m/s 749 mmHg 92%
06:00 -1°C° 0 mm 3 m/s 749 mmHg 91%
07:00 -1°C° 0 mm 3 m/s 749 mmHg 90%
08:00 +1°C° 0 mm 3 m/s 749 mmHg 83%
09:00 +3°C° 0 mm 4 m/s 749 mmHg 75%
10:00 +5°C° 0 mm 4 m/s 749 mmHg 68%
11:00 +6°C° 0 mm 4 m/s 749 mmHg 64%
12:00 +7°C° 0 mm 4 m/s 749 mmHg 61%
13:00 +8°C° 0 mm 5 m/s 749 mmHg 58%
14:00 +8°C° 0 mm 4 m/s 748 mmHg 60%
15:00 +8°C° 0 mm 4 m/s 748 mmHg 61%
16:00 +8°C° 0 mm 4 m/s 748 mmHg 62%
17:00 +6°C° 0 mm 4 m/s 748 mmHg 68%
18:00 +5°C° 0 mm 3 m/s 748 mmHg 74%
19:00 +4°C° 0 mm 3 m/s 748 mmHg 80%
20:00 +3°C° 0 mm 3 m/s 748 mmHg 82%
21:00 +4°C° 0 mm 2 m/s 748 mmHg 84%
22:00 +3°C° 0 mm 2 m/s 749 mmHg 87%
23:00 +3°C° 0 mm 2 m/s 749 mmHg 87%

Amanhã, 3 Março, Quarta-feira

Tempo Temperatura Precipitação Vento Pressão Humidade
00:00 +2°C° 0 mm 2 m/s 749 mmHg 88%
01:00 +3°C° 0 mm 1 m/s 749 mmHg 89%
02:00 +3°C° 0 mm 1 m/s 748 mmHg 89%
03:00 +2°C° 0 mm 1 m/s 748 mmHg 89%
04:00 +2°C° 0 mm 1 m/s 747 mmHg 89%
05:00 +2°C° 0 mm 1 m/s 748 mmHg 89%
06:00 +2°C° 0 mm 1 m/s 748 mmHg 89%
07:00 +1°C° 0 mm 0 m/s 748 mmHg 89%
08:00 +3°C° 0 mm 0 m/s 747 mmHg 83%
09:00 +6°C° 0 mm 1 m/s 747 mmHg 76%
10:00 +7°C° 0 mm 1 m/s 747 mmHg 69%
11:00 +8°C° 0 mm 1 m/s 747 mmHg 65%
12:00 +9°C° 0 mm 1 m/s 747 mmHg 60%
13:00 +9°C° 0 mm 2 m/s 746 mmHg 56%
14:00 +10°C° 0 mm 1 m/s 745 mmHg 57%
15:00 +10°C° 0 mm 1 m/s 745 mmHg 57%
16:00 +10°C° 0 mm 1 m/s 744 mmHg 58%
17:00 +9°C° 0 mm 1 m/s 744 mmHg 62%
18:00 +8°C° 0 mm 1 m/s 743 mmHg 66%
19:00 +6°C° 0 mm 1 m/s 743 mmHg 71%
20:00 +5°C° 0 mm 2 m/s 743 mmHg 72%
21:00 +4°C° 0 mm 2 m/s 742 mmHg 73%
22:00 +4°C° 0 mm 2 m/s 742 mmHg 74%
23:00 +3°C° 0 mm 3 m/s 741 mmHg 75%

Depois de amanhã, 4 Março, Quinta-feira

Tempo Temperatura Precipitação Vento Pressão Humidade
00:00 +3°C° 0 mm 3 m/s 741 mmHg 77%
01:00 +2°C° 0 mm 3 m/s 740 mmHg 79%
02:00 +2°C° 0 mm 3 m/s 739 mmHg 81%
03:00 +1°C° 0 mm 4 m/s 739 mmHg 83%
04:00 0°C° 0 mm 4 m/s 738 mmHg 85%
05:00 0°C° 0 mm 4 m/s 738 mmHg 85%
06:00 0°C° 0 mm 4 m/s 737 mmHg 85%
07:00 0°C° 0 mm 4 m/s 737 mmHg 85%
08:00 +3°C° 0 mm 4 m/s 737 mmHg 78%
09:00 +5°C° 0 mm 5 m/s 736 mmHg 70%
10:00 +7°C° 0 mm 6 m/s 736 mmHg 63%
11:00 +8°C° 0 mm 6 m/s 736 mmHg 60%
12:00 +9°C° 0 mm 6 m/s 735 mmHg 58%
13:00 +10°C° 0 mm 5 m/s 735 mmHg 55%
14:00 +10°C° 0 mm 5 m/s 735 mmHg 58%
15:00 +11°C° 0 mm 4 m/s 734 mmHg 60%
16:00 +10°C° 0 mm 3 m/s 733 mmHg 62%
17:00 +9°C° 0.2 mm 3 m/s 733 mmHg 69%
18:00 +8°C° 0.2 mm 2 m/s 733 mmHg 76%
19:00 +7°C° 0.2 mm 2 m/s 733 mmHg 83%
20:00 +7°C° 0.3 mm 2 m/s 733 mmHg 84%
21:00 +7°C° 0.3 mm 1 m/s 732 mmHg 86%
22:00 +7°C° 0.3 mm 1 m/s 732 mmHg 88%
23:00 +7°C° 0.5 mm 1 m/s 732 mmHg 89%

5 Março, Sexta-feira

Tempo Temperatura Precipitação Vento Pressão Humidade
00:00 +7°C° 0.5 mm 1 m/s 731 mmHg 91%
01:00 +6°C° 0.5 mm 1 m/s 731 mmHg 92%
02:00 +5°C° 0.8 mm 2 m/s 731 mmHg 93%
03:00 +4°C° 0.8 mm 3 m/s 730 mmHg 93%
04:00 +4°C° 0.8 mm 3 m/s 730 mmHg 94%
05:00 +3°C° 0.8 mm 4 m/s 730 mmHg 94%
06:00 +1°C° 0.8 mm 4 m/s 731 mmHg 95%
07:00 0°C° 0.8 mm 5 m/s 731 mmHg 95%
08:00 0°C° 0.1 mm 5 m/s 732 mmHg 92%
09:00 0°C° 0.1 mm 5 m/s 733 mmHg 90%
10:00 -1°C° 0.1 mm 4 m/s 733 mmHg 88%
11:00 0°C° 0 mm 4 m/s 734 mmHg 84%
12:00 0°C° 0 mm 4 m/s 734 mmHg 79%
13:00 0°C° 0 mm 4 m/s 735 mmHg 75%
14:00 0°C° 0 mm 4 m/s 735 mmHg 71%
15:00 0°C° 0 mm 4 m/s 736 mmHg 68%
16:00 -1°C° 0 mm 4 m/s 736 mmHg 65%
17:00 -1°C° 0 mm 4 m/s 737 mmHg 66%
18:00 -1°C° 0 mm 3 m/s 737 mmHg 68%
19:00 -2°C° 0 mm 2 m/s 738 mmHg 70%
20:00 -2°C° 0 mm 2 m/s 739 mmHg 69%
21:00 -2°C° 0 mm 2 m/s 739 mmHg 68%
22:00 -3°C° 0 mm 2 m/s 740 mmHg 67%
23:00 -3°C° 0 mm 2 m/s 740 mmHg 68%

6 Março, Sábado

Tempo Temperatura Precipitação Vento Pressão Humidade
00:00 -3°C° 0 mm 2 m/s 741 mmHg 68%
01:00 -4°C° 0 mm 3 m/s 741 mmHg 68%
02:00 -4°C° 0 mm 3 m/s 741 mmHg 67%
03:00 -4°C° 0 mm 3 m/s 742 mmHg 66%
04:00 -4°C° 0 mm 3 m/s 742 mmHg 66%
05:00 -4°C° 0 mm 3 m/s 743 mmHg 65%
06:00 -4°C° 0 mm 4 m/s 743 mmHg 64%
07:00 -4°C° 0 mm 4 m/s 744 mmHg 63%
08:00 -3°C° 0 mm 4 m/s 744 mmHg 56%
09:00 -4°C° 0 mm 5 m/s 745 mmHg 49%
10:00 -2°C° 0 mm 5 m/s 745 mmHg 42%
11:00 -1°C° 0 mm 5 m/s 745 mmHg 40%
12:00 -1°C° 0 mm 5 m/s 746 mmHg 38%
13:00 -1°C° 0 mm 5 m/s 746 mmHg 36%
14:00 -1°C° 0 mm 4 m/s 746 mmHg 38%
15:00 -1°C° 0 mm 4 m/s 746 mmHg 39%
16:00 -1°C° 0 mm 4 m/s 746 mmHg 41%
17:00 -1°C° 0 mm 3 m/s 747 mmHg 46%
18:00 -2°C° 0 mm 2 m/s 747 mmHg 52%
19:00 -3°C° 0 mm 2 m/s 747 mmHg 57%
20:00 -1°C° 0 mm 1 m/s 748 mmHg 57%
21:00 -1°C° 0 mm 1 m/s 748 mmHg 58%
22:00 -1°C° 0 mm 1 m/s 748 mmHg 58%
23:00 -1°C° 0 mm 1 m/s 748 mmHg 58%

7 Março, Domingo

Tempo Temperatura Precipitação Vento Pressão Humidade
00:00 -3°C° 0 mm 2 m/s 748 mmHg 57%
01:00 -4°C° 0 mm 2 m/s 749 mmHg 57%
02:00 -4°C° 0 mm 2 m/s 748 mmHg 58%
03:00 -4°C° 0 mm 2 m/s 748 mmHg 58%
04:00 -4°C° 0 mm 2 m/s 748 mmHg 59%
05:00 -4°C° 0 mm 2 m/s 748 mmHg 59%
06:00 -5°C° 0 mm 3 m/s 748 mmHg 59%
07:00 -5°C° 0 mm 3 m/s 748 mmHg 58%
08:00 -2°C° 0 mm 3 m/s 748 mmHg 53%
09:00 -2°C° 0 mm 4 m/s 748 mmHg 48%
10:00 -1°C° 0 mm 5 m/s 747 mmHg 43%
11:00 0°C° 0 mm 5 m/s 747 mmHg 42%
12:00 0°C° 0 mm 5 m/s 747 mmHg 41%
13:00 +1°C° 0 mm 5 m/s 746 mmHg 40%
14:00 +1°C° 0 mm 5 m/s 745 mmHg 42%
15:00 +1°C° 0 mm 5 m/s 745 mmHg 43%
16:00 0°C° 0 mm 4 m/s 744 mmHg 45%
17:00 -1°C° 0 mm 4 m/s 744 mmHg 50%
18:00 -2°C° 0 mm 4 m/s 744 mmHg 55%
19:00 -2°C° 0 mm 3 m/s 743 mmHg 59%
20:00 -2°C° 0 mm 3 m/s 743 mmHg 59%
21:00 -3°C° 0 mm 4 m/s 743 mmHg 59%
22:00 -4°C° 0 mm 4 m/s 743 mmHg 59%
23:00 -4°C° 0 mm 4 m/s 742 mmHg 60%
Mostrar mais

Necessitamos do seu Consentimento

A Meteoprog e os seus Fornecedores de Serviços podem armazenar e aceder a dados pessoais como cookies, identificadores do dispositivo ou outras tecnologias semelhantes existentes no seu dispositivo e processar estes dados para personalizar conteúdos e anúncios, assim como funcionalidades nas redes sociais e análise de tráfego.

  • Armazenar e/ou aceder a informações no seu dispositivo

    Os cookies, identificadores do dispositivo ou outras informações podem ser armazenados ou acedidos no seu dispositivo, para os fins acima indicados.

  • Anúncios e conteúdos personalizados, medição de anúncios e conteúdos, dados sobre o público-alvo e desenvolvimento de produtos

    Os anúncios e os conteúdos podem ser personalizados com base num perfil. Podem ser adicionados dados adicionais para uma maior personalização dos anúncios e dos conteúdos. A eficácia dos anúncios e dos conteúdos pode ser medida. Podem ser obtidas informações sobre o público que visualizou os anúncios e os conteúdos. Estes dados podem ser usados para desenvolver ou melhorar sistemas, softwares ou a experiência do utilizador.

Ao clicar em "Eu concordo”, permitirá o uso de cookies, identificadores do dispositivo e web beacons mencionados ou outras tecnologias semelhantes. As configurações do navegador do seu dispositivo podem ser alteradas.

Para certos fins, podem ser invocados interesses legítimos ao invés de consentimento. Pode ler mais informação sobre este assunto na nossa Política de Privacidade e Cookies.